TimeCST,TemperatureF,Dew PointF,Humidity,Sea Level PressureIn,VisibilityMPH,Wind Direction,Wind SpeedMPH,Gust SpeedMPH,PrecipitationIn,Events,Conditions,WindDirDegrees,DateUTC
12:15 AM,20.3,6.8,56,29.97,10.0,WNW,31.1,40.3,N/A,,Clear,290,2013-01-20 06:15:00
12:35 AM,19.2,6.8,59,29.99,10.0,WNW,25.3,35.7,N/A,,Clear,300,2013-01-20 06:35:00
12:55 AM,18.7,7.7,62,30.01,10.0,WNW,20.7,36.8,N/A,,Clear,290,2013-01-20 06:55:00
1:15 AM,17.6,5.7,60,30.02,10.0,WNW,27.6,39.1,N/A,,Clear,290,2013-01-20 07:15:00
1:35 AM,17.2,7.0,64,30.04,10.0,WNW,26.5,33.4,N/A,,Clear,290,2013-01-20 07:35:00
1:55 AM,16.5,7.3,67,30.06,10.0,WNW,23.0,28.8,N/A,,Scattered Clouds,290,2013-01-20 07:55:00
2:15 AM,15.3,4.1,61,30.08,10.0,WNW,26.5,35.7,N/A,,Clear,290,2013-01-20 08:15:00
2:35 AM,14.9,5.4,66,30.09,10.0,WNW,23.0,29.9,N/A,,Clear,290,2013-01-20 08:35:00
2:55 AM,14.7,4.6,64,30.11,10.0,WNW,25.3,32.2,N/A,,Clear,290,2013-01-20 08:55:00
3:15 AM,14.0,4.3,65,30.12,10.0,WNW,24.2,34.5,N/A,,Clear,290,2013-01-20 09:15:00
3:35 AM,13.3,2.7,63,30.14,10.0,WNW,20.7,33.4,N/A,,Clear,290,2013-01-20 09:35:00
3:55 AM,12.9,3.4,66,30.14,10.0,WNW,18.4,28.8,N/A,,Clear,290,2013-01-20 09:55:00
4:15 AM,12.2,1.9,64,30.14,10.0,NW,17.3,27.6,N/A,,Clear,310,2013-01-20 10:15:00
4:35 AM,12.0,1.8,64,30.16,10.0,WNW,19.6,26.5,N/A,,Clear,300,2013-01-20 10:35:00
4:55 AM,11.7,2.3,66,30.17,10.0,WNW,17.3,25.3,N/A,,Clear,300,2013-01-20 10:55:00
5:15 AM,11.3,1.2,64,30.18,10.0,WNW,19.6,29.9,N/A,,Clear,300,2013-01-20 11:15:00
5:35 AM,10.9,2.1,68,30.19,10.0,WNW,18.4,25.3,N/A,,Clear,290,2013-01-20 11:35:00
5:55 AM,10.4,1.4,67,30.21,10.0,WNW,18.4,26.5,N/A,,Clear,290,2013-01-20 11:55:00
6:15 AM,10.4,1.4,67,30.21,10.0,WNW,16.1,-,N/A,,Clear,300,2013-01-20 12:15:00
6:35 AM,10.0,1.4,68,30.22,10.0,WNW,18.4,23.0,N/A,,Clear,290,2013-01-20 12:35:00
6:55 AM,10.0,1.2,68,30.23,10.0,WNW,16.1,24.2,N/A,,Clear,300,2013-01-20 12:55:00
7:15 AM,10.0,0.9,66,30.24,10.0,WNW,18.4,27.6,N/A,,Clear,300,2013-01-20 13:15:00
7:35 AM,10.0,1.2,68,30.25,10.0,WNW,18.4,21.9,N/A,,Clear,290,2013-01-20 13:35:00
7:55 AM,10.0,0.5,65,30.26,10.0,WNW,15.0,24.2,N/A,,Clear,300,2013-01-20 13:55:00
8:15 AM,10.0,1.2,68,30.27,10.0,WNW,16.1,21.9,N/A,,Clear,290,2013-01-20 14:15:00
8:35 AM,11.3,1.8,66,30.27,10.0,WNW,16.1,-,N/A,,Clear,290,2013-01-20 14:35:00
8:55 AM,11.1,1.4,65,30.28,10.0,WNW,12.7,20.7,N/A,,Clear,300,2013-01-20 14:55:00
9:15 AM,11.1,1.8,66,30.28,10.0,WNW,12.7,-,N/A,,Clear,300,2013-01-20 15:15:00
9:35 AM,12.0,1.6,63,30.28,10.0,WNW,13.8,19.6,N/A,,Clear,300,2013-01-20 15:35:00
9:55 AM,12.4,1.9,63,30.28,10.0,NW,10.4,17.3,N/A,,Clear,320,2013-01-20 15:55:00
10:15 AM,13.1,3.0,64,30.27,10.0,WNW,11.5,-,N/A,,Clear,300,2013-01-20 16:15:00
10:35 AM,14.0,2.7,61,30.28,10.0,NW,12.7,-,N/A,,Clear,310,2013-01-20 16:35:00
10:55 AM,14.5,3.0,60,30.28,10.0,WNW,13.8,19.6,N/A,,Clear,290,2013-01-20 16:55:00
11:15 AM,14.9,4.1,62,30.27,10.0,WNW,11.5,19.6,N/A,,Clear,300,2013-01-20 17:15:00
11:35 AM,14.9,3.2,60,30.27,10.0,WNW,12.7,-,N/A,,Clear,290,2013-01-20 17:35:00
11:55 AM,15.4,3.2,59,30.27,10.0,NW,11.5,17.3,N/A,,Clear,310,2013-01-20 17:55:00
12:15 PM,15.4,3.7,60,30.25,10.0,WNW,13.8,18.4,N/A,,Clear,290,2013-01-20 18:15:00
12:35 PM,15.8,3.2,58,30.25,10.0,WNW,13.8,20.7,N/A,,Clear,290,2013-01-20 18:35:00
12:55 PM,16.0,3.6,58,30.24,10.0,WNW,13.8,19.6,N/A,,Clear,290,2013-01-20 18:55:00
1:15 PM,16.3,3.0,56,30.24,10.0,WNW,15.0,19.6,N/A,,Clear,300,2013-01-20 19:15:00
1:35 PM,15.8,2.3,55,30.23,10.0,WNW,10.4,19.6,N/A,,Clear,290,2013-01-20 19:35:00
1:55 PM,16.0,2.8,56,30.23,10.0,WNW,13.8,-,N/A,,Clear,290,2013-01-20 19:55:00
2:15 PM,16.0,2.7,56,30.24,10.0,WNW,16.1,-,N/A,,Scattered Clouds,290,2013-01-20 20:15:00
2:35 PM,16.9,2.5,53,30.23,10.0,WNW,13.8,-,N/A,,Scattered Clouds,300,2013-01-20 20:35:00
2:55 PM,16.7,1.8,52,30.24,10.0,WNW,13.8,18.4,N/A,,Mostly Cloudy,300,2013-01-20 20:55:00
3:15 PM,16.5,1.2,51,30.24,10.0,WNW,11.5,-,N/A,,Overcast,300,2013-01-20 21:15:00
3:35 PM,16.5,1.8,52,30.24,10.0,WNW,12.7,19.6,N/A,,Overcast,290,2013-01-20 21:35:00
3:55 PM,16.5,1.4,52,30.24,10.0,WNW,12.7,16.1,N/A,,Overcast,290,2013-01-20 21:55:00
4:15 PM,16.3,1.0,51,30.24,10.0,WNW,9.2,-,N/A,,Overcast,300,2013-01-20 22:15:00
4:35 PM,15.8,1.6,54,30.24,10.0,West,11.5,-,N/A,,Overcast,280,2013-01-20 22:35:00
4:55 PM,15.4,0.5,52,30.24,10.0,WNW,11.5,-,N/A,,Overcast,290,2013-01-20 22:55:00
5:15 PM,15.3,1.9,56,30.24,10.0,West,11.5,-,N/A,,Overcast,280,2013-01-20 23:15:00
5:35 PM,14.9,1.4,55,30.24,10.0,West,8.1,-,N/A,,Overcast,270,2013-01-20 23:35:00
5:55 PM,14.5,1.4,56,30.24,10.0,WNW,10.4,-,N/A,,Mostly Cloudy,290,2013-01-20 23:55:00
6:15 PM,14.0,1.2,57,30.24,10.0,WNW,9.2,-,N/A,,Mostly Cloudy,290,2013-01-21 00:15:00
6:35 PM,14.0,1.4,57,30.24,10.0,WNW,11.5,-,N/A,,Scattered Clouds,290,2013-01-21 00:35:00
6:55 PM,14.0,2.1,59,30.24,10.0,WNW,9.2,-,N/A,,Mostly Cloudy,300,2013-01-21 00:55:00
7:15 PM,13.8,2.3,60,30.24,10.0,WNW,8.1,-,N/A,,Mostly Cloudy,300,2013-01-21 01:15:00
7:35 PM,13.8,1.6,58,30.23,10.0,WNW,10.4,-,N/A,,Overcast,300,2013-01-21 01:35:00
7:55 PM,13.6,1.9,60,30.23,10.0,WNW,11.5,-,N/A,,Overcast,300,2013-01-21 01:55:00
8:15 PM,13.6,0.7,56,30.22,10.0,WNW,10.4,17.3,N/A,,Overcast,290,2013-01-21 02:15:00
8:35 PM,13.5,1.2,58,30.22,10.0,WNW,8.1,-,N/A,,Overcast,300,2013-01-21 02:35:00
8:55 PM,13.1,0.7,58,30.21,10.0,WNW,11.5,-,N/A,,Overcast,290,2013-01-21 02:55:00
9:15 PM,13.1,0.7,58,30.21,10.0,West,10.4,17.3,N/A,,Overcast,280,2013-01-21 03:15:00
9:35 PM,12.9,0.9,59,30.21,10.0,West,10.4,-,N/A,,Overcast,280,2013-01-21 03:35:00
9:55 PM,12.6,0.7,59,30.20,10.0,West,12.7,-,N/A,,Overcast,280,2013-01-21 03:55:00
10:15 PM,12.6,0.7,59,30.20,10.0,West,11.5,-,N/A,,Overcast,270,2013-01-21 04:15:00
10:35 PM,12.0,1.0,61,30.20,10.0,West,11.5,17.3,N/A,,Mostly Cloudy,280,2013-01-21 04:35:00
10:55 PM,12.2,1.2,61,30.19,10.0,West,11.5,-,N/A,,Mostly Cloudy,280,2013-01-21 04:55:00
11:15 PM,11.7,1.8,65,30.19,10.0,West,9.2,-,N/A,,Scattered Clouds,280,2013-01-21 05:15:00
11:35 PM,11.3,1.4,64,30.19,10.0,West,11.5,18.4,N/A,,Scattered Clouds,270,2013-01-21 05:35:00
11:55 PM,11.3,1.4,64,30.18,10.0,West,10.4,-,N/A,,Clear,270,2013-01-21 05:55:00